Location: Freiburg+im+Breisgau
(48.0359°N, 7.8195°E)
Time: 09:22:18
(UTC+01:00)

ISS - Visible Passes

Search period start: 17 February 2019 00:00
Search period end: 27 February 2019 00:00
Orbit: 403 x 411 km, 51.6° (Epoch: 17 February)

Date Brightness Start Highest point End Pass type
(mag) Time Alt. Az. Time Alt. Az. Time Alt. Az.
23 Feb -1.1 06:33:28 10° S 06:35:51 19° SE 06:38:14 10° E visible
24 Feb -0.7 05:43:29 10° SSE 05:44:35 11° SE 05:45:41 10° ESE visible
25 Feb -2.4 06:26:04 10° SW 06:29:07 37° SE 06:32:11 10° ENE visible
26 Feb -1.7 05:35:45 14° S 05:37:44 23° SE 05:40:25 10° E visible
